Location: 22
(39.7117°N, 89.5929°W)
Time: 08:49:48
(UTC-05:00)

S-56A Canister/Altair - Pass Details

Date: 07 February 2023
Orbit: 638 x 2493 km, 38.9° (Epoch: 25 March)

Event Time Altitude Azimuth Distance (km) Brightness Sun altitude
Rises 11:29:23 0° 266° (W) 2,928 10.5 34.2°
Reaches altitude 10° 11:31:33 10° 265° (W) 2,039 9.7 34.2°
Maximum altitude 11:36:04 83° 179° (S) 722 8.2 34.4°
Drops below altitude 10° 11:41:45 10° 91° (E) 2,537 10.4 34.6°
Sets 11:44:44 0° 91° (E) 3,718 11.1 34.7°
